Tracking 29967 objects as of 5-Dec-2024
HD Live streaming from Space Station
objects crossing your sky now

ONEWEB-0637

Track ONEWEB-0637 now!
10-day predictions
ONEWEB-0637 is classified as:


NORAD ID: 56078
Int'l Code: 2023-043AJ
Perigee: 1,207.3 km
Apogee: 1,210.5 km
Inclination: 87.9 °
Period: 109.5 minutes
Semi major axis: 7579 km
RCS: Unknown
Launch date: March 26, 2023
Source: United Kingdom (UK)
Launch site: SRIHARIKOTA (SRI)
Your satellite tracking list
Your tracking list is empty




NASA's NSSDC Master Catalog

Two Line Element Set (TLE):
1 56078U 23043AJ  24339.80428220 -.00000107  00000-0 -31848-3 0  9992
2 56078  87.9082  10.5861 0002122  91.0894 269.0480 13.15546777 82882
Source of the keplerian elements: AFSPC